User: anonymous   Login
Location: Caltech
(34.1382°N, 118.1253°W)
Time: 13:35:47
(UTC-07:00)
Language:

PAYLOAD A - Orbit

View from above orbital plane
View from above orbital plane
View from above satellite
View from above satellite

Ground track
Ground track

The orbit data is extracted from the following two-line orbital elements,

1 27840U 03031A   17142.92294048 +.00000005 +00000-0 +14807-4 0  9990
2 27840 098.2045 141.5200 0097912 194.4930 165.3446 14.38881402729581
Epoch (UTC): 22 May 2017 22:09:02
Eccentricity: 0.0097912
inclination: 98.2045°
perigee height: 692 km
apogee height: 832 km
right ascension of ascending node: 141.5200°
argument of perigee: 194.4930°
revolutions per day: 14.38881402
mean anomaly at epoch: 165.3446°
orbit number at epoch: 72958

The dashed part of the orbit path shows where the satellite is in the earth's shadow,  

DLR